Other Public Products
Issued by NWS Grand Forks, ND

Home | Current Version | Previous Version | Graphics & Text | Print | Product List | Glossary On
Versions: 1 2 3 4 5 6 7 8 9 10 11 12 13 14 15 16 17 18 19 20 21 22 23 24 25 26 27 28 29 30 31 32 33 34 35 36 37 38 39 40 41 42 43 44 45 46 47 48 49 50
000
FPUS83 KFGF 022231
OPUFGF
PRAIRIE TO PINES WEATHER ROUNDUP
NATIONAL WEATHER SERVICE EASTERN NORTH DAKOTA/GRAND FORKS ND
400 PM CST MON MAR 02 2015

 **SATELLITE DATA USED TO AUGMENT SKY COVER AT AUTOMATED STATIONS**
 *****  WEATHER ACROSS EASTERN NORTH DAKOTA  *****

CITY           SKY/WX    TMP DP  RH WIND       PRES   REMARKS
GRAND FORKS    MOSUNNY   30  17  58 S22G31    29.97F WCI  17
GRAND FORKS AF SUNNY     30  15  55 S30G36    29.94F WCI  15
GRAND CITY NWS   N/A     28 N/A N/A S18         N/A  WCI  16
BUXTON         NOT AVBL
DEVILS LAKE    SUNNY     28  19  69 S21G33    29.85F WCI  15
FARGO          PTSUNNY   32  15  49 S25G39    30.01F WCI  19
WAHPETON ARPT  CLOUDY    30  18  59 S30G36    30.04F WCI  15
$$

 *****  WEATHER ACROSS CENTRAL AND WESTERN NORTH DAKOTA  *****

CITY           SKY/WX    TMP DP  RH WIND       PRES   REMARKS
JAMESTOWN      SUNNY     31  21  66 S26G36    29.88F WCI  17
BISMARCK       MOSUNNY   41  21  44 S16       29.79F
MINOT          MOSUNNY   33  20  58 S12G23    29.73F WCI  24
MINOT AFB      MOSUNNY   32  23  70 S14G22    29.72F WCI  22
GARRISON         N/A     35  23  61 SW16      29.73F
WILLISTON      MOSUNNY   40  19  43 W16       29.72S
DICKINSON      MOSUNNY   43  12  28 W15       29.69F
HETTINGER      PTSUNNY   45  10  24 SW10      29.74F
$$

 *****  OTHER OBSERVATIONS NORTHEAST NORTH DAKOTA  *****

CITY           SKY/WX    TMP DP  RH WIND       PRES   REMARKS
WALHALLA         N/A     28  18  64 S17G32    29.88F WCI  16
LANGDON        NOT AVBL
CAVALIER       CLOUDY    28  18  64 S22G29    29.90F WCI  15
GRAFTON        NOT AVBL
CANDO          FAIR      28  19  69 S20G26    29.81F WCI  15
FORT TOTTEN      N/A     30  18  61 S16       29.95S WCI  19
ROLLA          FAIR      25  19  80 S18G24    29.77F WCI  11
RUGBY          FAIR      28  21  74 S14G22    29.76F WCI  17
 ***** THE ABOVE OBSERVATIONS ARE NON NWS ARE NOT QUALITY
        CONTROLLED AND MAY MIS-REPORT RAIN FOR SNOW...
$$

 *****  OTHER OBSERVATIONS SOUTHEAST NORTH DAKOTA *****

CITY           SKY/WX    TMP DP  RH WIND       PRES   REMARKS
COOPERSTOWN    NOT AVBL
VALLEY CITY    FLURRIES  30  19  64 S21G30    29.92F WCI  17
OAKES            N/A     32  23  69 S24G32    29.94F WCI  19
GWINNER        CLOUDY    34  21  60 S25       29.98F WCI  21
BUFFALO        NOT AVBL
WYNDMERE         N/A     30  19  64 S17         N/A  WCI  18
 ***** THE ABOVE OBSERVATIONS ARE NON NWS ARE NOT QUALITY
       CONTROLLED AND MAY MIS-REPORT RAIN FOR SNOW...
$$

  *****  WEATHER ACROSS NORTHERN MINNESOTA  *****

CITY           SKY/WX    TMP DP  RH WIND       PRES   REMARKS
FLAG ISLAND    SUNNY     21   9  58 S13       30.02F WCI   9
WARROAD        SUNNY     27  10  50 S9        30.02F WCI  17
ROSEAU         SUNNY     25  12  58 S15       30.01F WCI  12
HALLOCK        PTSUNNY   25  18  74 SE25      29.95F WCI   9
THF RVR FALLS  SUNNY     25  12  58 S16G24    30.00F WCI  12
HALSTAD          N/A     30  12  47 S25         N/A  WCI  16
FOSSTON        SUNNY     30  10  43 S17       30.03F WCI  18
BAUDETTE       SUNNY     25   7  46 S15       30.06F WCI  13
WASKISH        SUNNY     28   7  40 S5G18     30.07F WCI  23
CROOKSTON      SUNNY     28  18  64 S25G32    30.01F WCI  14
$$
  *****  WEATHER ACROSS CENTRAL AND WEST MINNESOTA  *****

CITY           SKY/WX    TMP DP  RH WIND       PRES   REMARKS
BEMIDJI        SUNNY     26   8  46 S12G23    30.06F WCI  15
PARK RAPIDS    SUNNY     27  10  49 S14       30.09F WCI  16
WADENA         MOSUNNY   25  10  54 S15       30.10F WCI  12
DETROIT LAKES  SUNNY     28  16  59 S18G26    30.05F WCI  16
MOORHEAD       MOSUNNY   30  16  55 S28G36    30.03F WCI  16
FERGUS FALLS   CLOUDY    27  14  59 S22       30.10F WCI  12
ELBOW LAKE     CLOUDY    26  16  65 SE21G26   30.08F WCI  12
MORRIS MN      CLOUDY    28  16  59 SE22G28   30.09F WCI  15
STAPLES        MOSUNNY   25   9  50 S18       30.13F WCI  11
WHEATON        CLOUDY    27  18  69 SE20G26   30.09F WCI  13
$$
  *****  WEATHER ELSEWHERE ACROSS MINNESOTA  *****

CITY           SKY/WX    TMP DP  RH WIND       PRES   REMARKS
DULUTH         SUNNY     27   5  39 SW13      30.18F WCI  16
INTRNTL FALLS  SUNNY     27   7  42 S8G21     30.09F WCI  19
ELY            SUNNY     27   1  33 SW9       30.13F WCI  17
CLOQUET        SUNNY     25   1  36 S10       30.19F WCI  15
BRAINERD       SUNNY     26   7  44 S16G24    30.17F WCI  14
HIBBING        SUNNY     27   3  35 S9        30.15F WCI  18
ALEXANDRIA     CLOUDY    26  13  57 S16       30.13F WCI  14
SAINT CLOUD    SUNNY     27  10  49 S15       30.22F WCI  15
MINNEAPOLIS    PTSUNNY   25   4  40 S10       30.29F WCI  15
$$

  *****  WEATHER ACROSS SOUTH DAKOTA  *****

CITY           SKY/WX    TMP DP  RH WIND       PRES   REMARKS
SIOUX FALLS    CLOUDY    30  17  58 SE14G25   30.11F WCI  19
BROOKINGS      NOT AVBL
WATERTOWN      CLOUDY    28  18  66 S25G31    30.02F WCI  13
HURON          CLOUDY    34  17  50 SE15G28   30.00F WCI  24
SISSETON         N/A     30  17  58 S25G32    30.03F WCI  16
ABERDEEN       PTSUNNY   35  20  54 S28G35    29.98F WCI  22
MITCHELL       CLOUDY    37  18  46 S21G31    30.03F
PIERRE         MOSUNNY   47  15  27 S28G35    29.83F
MOBRIDGE       MOSUNNY   46  22  38 S16G24    29.77F
RAPID CITY     PTSUNNY   47  24  40 S13       29.71F
$$

  *****  SOME WEATHER IN NEARBY STATES *****

CITY           SKY/WX    TMP DP  RH WIND       PRES   REMARKS
GLASGOW MT     CLOUDY    31  18  58 NW31G38   29.83R WCI  16
GREAT FALLS MT LGT SNOW  25  19  80 N23       29.94R WCI  10
CHEYENNE WY    MOSUNNY   37  24  59 S10       29.67F
SCOTTSBLUFF NE MOSUNNY   46  24  42 SE14      29.72F
OMAHA NE       CLOUDY    41  20  43 SE20      30.18F
DES MOINES IA  CLOUDY    32  16  51 SE12      30.31F WCI  23
DAVENPORT IA   CLOUDY    27  16  63 SE9       30.39F WCI  18
CHICAGO IL     CLOUDY    32  10  40 E3        30.39F
EAU CLAIRE WI  SUNNY     25   6  44 S7        30.31F WCI  17
LA CROSSE WI   PTSUNNY   27   9  46 S3        30.36F
$$

  *****  SOME NATIONAL WEATHER *****

CITY           SKY/WX    TMP DP  RH WIND       PRES   REMARKS
LA GUARDIA NY  CLEAR     37  13  37 NW20G25   30.17R
RALEIGH NC     PTSUNNY   58  33  39 VRB3      30.25R
ATLANTA GA     PTSUNNY   59  50  72 NW10      30.25R
NEW ORLEANS LA PTSUNNY   75  68  78 E5        30.18S
OKLAHOMA CITY  CLOUDY    37  28  70 S5        30.20F
ALBUQUERQUE NM CLOUDY    59  33  37 S25G39    29.86F
SALT LAKE CITY CLOUDY    41  34  76 NW7       29.65F
LOS ANGELES CA PTSUNNY   59  42  53 W9        29.90F
BOISE ID       SUNNY     48  21  34 NW12      29.73F
SEATTLE WA     MOSUNNY   51  35  54 N13G21    30.03S
$$

*** WEATHER ACROSS MANITOBA...SASKATCHEWAN AND ONTARIO ***
                ***ONTARIO***

CITY           SKY/WX    TMP DP  RH WIND       PRES   REMARKS
GERALDTON      MOSUNNY   18  -9  29 SW9       30.17F WCI   6
THUNDER BAY    PTSUNNY   25  10  54 S12       30.21  WCI  14
SIOUX LOOKOUT  PTSUNNY   21  -2  35 SW10G18   30.06F WCI  10
TORONTO        MOSUNNY   23   9  54 NW17G28   30.37R WCI   9
BIG TROUT LK   SUNNY     18   0  45 SW7       29.90F WCI   8
PICKLE LAKE    PTSUNNY   19  -6  32 SW14      30.01F WCI   6
DRYDEN         SUNNY     23   3  42 S14       30.05F WCI  11
KENORA         PTSUNNY   21   9  58 SW15      30.02F WCI   8
$$
                *** MANITOBA***

CITY           SKY/WX    TMP DP  RH WIND       PRES   REMARKS
BRANDON        PTSUNNY   27  16  63 S18       29.76F WCI  13
DAUPHIN        SUNNY     28  16  59 W15G28    29.72S WCI  17
ISLAND LAKE    CLOUDY    25   5  42 SW9G21    29.79F WCI  15
PILOT MOUND      N/A     21  18  86 S24         N/A  WCI   4
THE PAS        LGT SNOW  19  14  79 NW16      29.68R VSB 1   WCI   5
THOMPSON       FLURRIES  23  10  58 W12       29.61F WCI  12
WINNIPEG       PTSUNNY   23  12  63 S28G35    29.93F WCI   6
LYNN LAKE      LGT SNOW   7   1  78 NW18G32   29.69R WCI -12
CHURCHILL      CLOUDY    -2  -9  71 E16       29.79S WCI -23
GILLAM         CLOUDY    23   5  46 SW7       29.65F WCI  15
$$
                ***SASKATCHEWAN***

CITY           SKY/WX    TMP DP  RH WIND       PRES   REMARKS
ESTEVAN        PTSUNNY   30  18  59 W17       29.72S WCI  18
KINDERSLEY     BLWGSNOW  16  10  79 N30G37    29.98R VSB 1   WCI  -4
LLOYDMINSTER   SNOW      10   7  85 NW20G31   30.02R VSB 1/4 WCI  -8
PRINCE ALBERT  PTSUNNY   14   3  62 N26G38    29.88R WCI  -6
REGINA         LGT SNOW  18  14  86 NW28G36   29.76R BLWGSNOWWCI  -1
YORKTON        MOSUNNY   21  12  68 SW10      29.68S WCI  10


USA.gov is the U.S. government's official web portal to all federal, state and local government web resources and services.